COSMOS 1417

Satellite information

Favourite Embed

Satellite Type and Status

PAYLOADIN ORBIT

Key statistics

Satellite COSMOS 1417 at a glance.

Uptime

15656

Days in orbit

Revolutions

≈ 13.8

Per day

Orbit

LEO

Low Earth Orbit

Inclination

83.0

Latest

Satellite identification and parameters

Extended collection of information and parameters for COSMOS 1417.

Object identification

Identified? True

Debris? False

Object name: COSMOS 1417

International designator: 1982-102A

Object number (NORAD): 13617

Object ID (CCSDS): 13617

Country: COMMONWEALTH OF INDEPENDENT STATES (CIS)

Current information (Y/N): Y

RCS size: LARGE

Orbital parameters

Period: 104.683 minutes

Inclination: 82.967 deg

SMA: 7357.72 km

Apoapsis: 1005.16 km

Periapsis: 954.011 km

RAAN: 114.4116 deg

Eccentricy: 0.00347592

Argument of periapsis: 157.8045 deg

Mean anomaly: 257.2177 deg

Mean motion: 13.75586319 rev/day

Mean motion (dot): 0.00000037 rev/day2

B* drag term: 0.000021887944 1/REarth

Two-line elements (TLE)

Creation date: Aug. 30, 2025, 3:38 a.m.

Reference frame: TEME

Reference center: EARTH

Epoch: Aug. 29, 2025, 7:06 p.m. UTC

TLE line 0: 0 COSMOS 1417

TLE line 1: 1 13617U 82102A 25241.79618788 .00000037 00000-0 21888-4 0 9990

TLE line 2: 2 13617 82.9670 114.4116 0034759 157.8045 257.2177 13.75586319150890

Live tracking on map

Real-time ground track for satellite COSMOS 1417.

In-orbit conjunctions

A list of the most updated potential collisions computed for object COSMOS 1417.

Target Orbit TCA Probability of collision Miss distance Type
THORAD AGENA D DEB SSO 2024-11-14 12:57:33 0.0003375204 125.0 (m) DEBRIS
FENGYUN 1C DEB SSO 2024-09-27 21:29:33 0.0002137899 227.0 (m) DEBRIS
FENGYUN 1C DEB SSO 2024-09-04 14:53:27 0.008104082 58.0 (m) DEBRIS

Associated space launch

Navigation satellite providing location information for the Tsiklon-B navigation system

COSMOS 1417 was lifted into orbit during the mission ‘Kosmos-3M | Parus 35’, on board a Kosmos-3M space rocket.

The launch took place on Oct. 19, 1982, 5:58 a.m. from 132/1 (132L).

For more information about the launch, click the button.

Launch to space Kosmos-3M | Parus 35
Kosmos-3M | Parus 35

Agency: N/A

Status: Launch Successful

Launch date: Oct. 19, 1982, 5:58 a.m. UTC

Rocket: Kosmos-3M

Launch pad: 132/1 (132L)

Location: Plesetsk Cosmodrome, Russian Federation

...

Latest news about this satellite

There are no fresh news available about this satellite. Check back as we update our databases every day.


Newsletter sign-up

Weekly statistics, charts and insights to help you stay on top of the space industry.